Date String (YYYY-MM-DD hh:mm:ss) UTC,Instrument flags,Ambient pressure (hPa),Sample flow (lpm),Bypass flow (lpm),Sample temperature (°C),Ambient temperature (°C),ASC tube jacket temperature (°C),LED temperature (°C),Box temperature (°C),Sample RH (%),Span deviation,Mass concentration (μg/m³),Mass concentration (μg/m³),Mass concentration (μg/m³)
DateTimeUTC,F1_M11,P_M11,Q1_M11,Q2_M11,T1_M11,T2_M11,T3_M11,T4_M11,T5_M11,U1_M11,ZSPAN_M11,X0_M11,X2_M11,X1_M11
2022-01-08 11:00:00,,0813.0,5.00,0.00,22.3,21.7,00.0,31.3,24.0,12.4,0000.0,0000.78,0000.52,0000.45
2022-01-08 11:01:00,,0813.2,5.01,0.00,22.2,21.6,00.0,31.3,24.0,12.4,0000.0,0000.79,0000.52,0000.45
2022-01-08 11:02:00,,0812.9,5.00,0.00,22.2,21.6,00.0,31.3,24.0,12.4,0000.0,0000.76,0000.52,0000.46
2022-01-08 11:03:00,,0812.9,4.99,0.00,22.2,21.6,00.0,31.3,24.0,12.6,0000.0,0000.66,0000.51,0000.46
2022-01-08 11:04:00,,0812.9,5.00,0.00,22.2,21.6,00.0,31.3,24.0,12.8,0000.0,0000.63,0000.51,0000.46
2022-01-08 11:05:00,,0812.9,4.99,0.00,22.2,21.6,00.0,31.3,24.0,12.5,0000.0,0000.62,0000.51,0000.46
2022-01-08 11:06:00,,0812.9,5.00,0.00,22.3,21.7,00.0,31.3,24.1,12.4,0000.0,0000.61,0000.50,0000.47
2022-01-08 11:07:00,,0812.9,5.00,0.00,22.3,21.7,00.0,31.3,24.1,12.4,0000.0,0000.60,0000.50,0000.47
2022-01-08 11:08:00,,0812.8,5.02,0.00,22.3,21.7,00.0,31.3,24.1,12.4,0000.0,0000.59,0000.50,0000.46
2022-01-08 11:09:00,,0812.8,5.00,0.00,22.3,21.7,00.0,31.3,24.1,12.4,0000.0,0000.61,0000.51,0000.47
2022-01-08 11:10:00,,0812.9,4.99,0.00,22.3,21.7,00.0,31.3,24.1,12.4,0000.0,0000.64,0000.52,0000.47
2022-01-08 11:11:00,,0812.8,5.01,0.00,22.3,21.7,00.0,31.3,24.1,12.4,0000.0,0000.64,0000.52,0000.47
2022-01-08 11:12:00,,0813.0,5.00,0.00,22.3,21.8,00.0,31.3,24.1,12.4,0000.0,0000.62,0000.51,0000.47
2022-01-08 11:13:00,,0813.1,4.99,0.00,22.3,21.8,00.0,31.3,24.2,12.4,0000.0,0000.63,0000.52,0000.47
2022-01-08 11:14:00,,0812.8,5.00,0.00,22.3,21.8,00.0,31.3,24.2,12.4,0000.0,0000.69,0000.54,0000.48
2022-01-08 11:15:00,,0812.8,5.01,0.00,22.3,21.8,00.0,31.3,24.2,12.4,0000.0,0000.77,0000.54,0000.48
2022-01-08 11:16:00,,0812.8,5.00,0.00,22.4,21.8,00.0,31.3,24.2,12.4,0000.0,0000.89,0000.58,0000.49
2022-01-08 11:17:00,,0812.8,5.01,0.00,22.4,21.8,00.0,31.3,24.2,12.4,0000.0,0000.93,0000.60,0000.49
2022-01-08 11:18:00,,0812.7,5.00,0.00,22.4,21.8,00.0,31.4,24.2,12.3,0000.0,0000.98,0000.62,0000.51
2022-01-08 11:19:00,,0812.7,4.99,0.00,22.4,21.8,00.0,31.4,24.2,12.3,0000.0,0001.98,0000.64,0000.51
2022-01-08 11:20:00,,0812.8,5.00,0.00,22.4,21.8,00.0,31.4,24.2,12.3,0000.0,0002.25,0000.64,0000.52
2022-01-08 11:21:00,,0812.8,5.00,0.00,22.4,21.8,00.0,31.4,24.2,12.3,0000.0,0002.37,0000.66,0000.53
2022-01-08 11:22:00,,0812.9,5.00,0.00,22.4,21.8,00.0,31.4,24.2,12.3,0000.0,0002.38,0000.67,0000.54
2022-01-08 11:23:00,,0812.8,5.01,0.00,22.4,21.8,00.0,31.4,24.2,12.3,0000.0,0002.40,0000.68,0000.55
2022-01-08 11:24:00,,0812.8,4.98,0.00,22.4,21.8,00.0,31.4,24.2,12.3,0000.0,0002.40,0000.68,0000.56
2022-01-08 11:25:00,,0812.8,5.01,0.00,22.4,21.8,00.0,31.4,24.2,12.3,0000.0,0002.39,0000.69,0000.57
2022-01-08 11:26:00,,0812.7,5.00,0.00,22.4,21.8,00.0,31.4,24.2,12.3,0000.0,0002.34,0000.69,0000.57
2022-01-08 11:27:00,,0812.7,5.00,0.00,22.4,21.8,00.0,31.4,24.2,12.3,0000.0,0002.38,0000.67,0000.58
2022-01-08 11:28:00,,0812.7,4.99,0.00,22.4,21.8,00.0,31.4,24.2,12.2,0000.0,0002.35,0000.66,0000.59
2022-01-08 11:29:00,,0812.8,5.01,0.00,22.4,21.8,00.0,31.4,24.2,12.3,0000.0,0002.40,0000.68,0000.59
2022-01-08 11:30:00,,0812.9,4.99,0.00,22.4,21.8,00.0,31.4,24.2,12.3,0000.0,0001.62,0000.70,0000.60
2022-01-08 11:31:00,,0812.8,5.02,0.00,22.4,21.9,00.0,31.4,24.2,12.2,0000.0,0001.21,0000.70,0000.61
2022-01-08 11:32:00,,0812.8,5.01,0.00,22.4,21.9,00.0,31.4,24.2,12.2,0000.0,0001.06,0000.68,0000.61
2022-01-08 11:33:00,,0812.8,4.99,0.00,22.5,21.9,00.0,31.4,24.3,12.2,0000.0,0001.09,0000.69,0000.62
2022-01-08 11:34:00,,0812.8,5.01,0.00,22.5,21.9,00.0,31.4,24.3,12.2,0000.0,0001.11,0000.71,0000.64
2022-01-08 11:35:00,,0813.0,5.01,0.00,22.5,22.0,00.0,31.4,24.3,12.2,0000.0,0001.14,0000.74,0000.66
2022-01-08 11:36:00,,0812.9,4.99,0.00,22.5,22.0,00.0,31.4,24.3,12.1,0000.0,0001.17,0000.75,0000.68
2022-01-08 11:37:00,,0813.2,5.00,0.00,22.5,22.0,00.0,31.5,24.3,12.1,0000.0,0001.16,0000.77,0000.70
2022-01-08 11:38:00,,0813.0,5.00,0.00,22.5,22.0,00.0,31.5,24.3,12.1,0000.0,0001.12,0000.80,0000.73
2022-01-08 11:39:00,,0813.0,4.98,0.00,22.6,22.0,00.0,31.5,24.4,12.1,0000.0,0001.15,0000.82,0000.74
2022-01-08 11:40:00,,0812.9,4.99,0.00,22.6,22.0,00.0,31.5,24.4,12.1,0000.0,0001.15,0000.82,0000.76
2022-01-08 11:41:00,,0813.1,5.01,0.00,22.6,22.0,00.0,31.5,24.4,12.1,0000.0,0001.21,0000.83,0000.77
2022-01-08 11:42:00,,0813.0,5.00,0.00,22.6,22.0,00.0,31.5,24.4,12.1,0000.0,0001.31,0000.87,0000.80
2022-01-08 11:43:00,,0813.0,5.01,0.00,22.6,22.0,00.0,31.5,24.4,12.1,0000.0,0001.37,0000.91,0000.82
2022-01-08 11:44:00,,0813.1,4.99,0.00,22.6,22.0,00.0,31.5,24.4,12.0,0000.0,0001.40,0000.93,0000.85
2022-01-08 11:45:00,,0813.1,4.99,0.00,22.6,22.0,00.0,31.5,24.4,12.0,0000.0,0001.51,0000.98,0000.88
2022-01-08 11:46:00,,0813.0,5.01,0.00,22.6,22.1,00.0,31.5,24.4,12.0,0000.0,0001.53,0001.01,0000.90
2022-01-08 11:47:00,,0813.1,5.00,0.00,22.6,22.1,00.0,31.5,24.4,12.0,0000.0,0001.56,0001.03,0000.93
2022-01-08 11:48:00,,0813.2,5.00,0.00,22.6,22.1,00.0,31.6,24.4,12.0,0000.0,0001.56,0001.03,0000.93
2022-01-08 11:49:00,,0813.1,5.01,0.00,22.6,22.1,00.0,31.6,24.4,12.0,0000.0,0001.54,0001.03,0000.93
2022-01-08 11:50:00,,0813.1,5.00,0.00,22.6,22.1,00.0,31.6,24.4,12.0,0000.0,0001.57,0001.05,0000.95
2022-01-08 11:51:00,,0813.2,5.00,0.00,22.6,22.1,00.0,31.6,24.4,12.0,0000.0,0001.59,0001.07,0000.96
2022-01-08 11:52:00,,0813.2,5.00,0.00,22.6,22.1,00.0,31.6,24.4,12.0,0000.0,0001.53,0001.07,0000.97
2022-01-08 11:53:00,,0813.2,4.99,0.00,22.6,22.1,00.0,31.6,24.4,12.0,0000.0,0001.51,0001.07,0000.97
2022-01-08 11:54:00,,0813.1,5.01,0.00,22.6,22.1,00.0,31.6,24.4,12.0,0000.0,0001.94,0001.06,0000.96
2022-01-08 11:55:00,,0813.2,4.99,0.00,22.6,22.1,00.0,31.6,24.4,12.0,0000.0,0002.25,0001.07,0000.96
2022-01-08 11:56:00,,0813.2,5.01,0.00,22.7,22.1,00.0,31.6,24.5,12.0,0000.0,0002.16,0001.03,0000.93
2022-01-08 11:57:00,,0813.3,5.00,0.00,22.7,22.1,00.0,31.6,24.5,12.1,0000.0,0002.12,0001.00,0000.91
2022-01-08 11:58:00,,0813.3,4.99,0.00,22.7,22.1,00.0,31.6,24.5,12.2,0000.0,0002.11,0000.99,0000.89
2022-01-08 11:59:00,,0813.2,5.01,0.00,22.7,22.1,00.0,31.6,24.5,12.2,0000.0,0002.13,0001.00,0000.89
